Flag for Mozambique Weather past 2 weeks in Nampula, Mozambique

Now
90 °F

Passing clouds.


Feels Like: 88 °F
Forecast: 59 / 89 °F
Wind: 12 mph from East

Location: Nampula Airport

Current Time: Sep 16, 2014 at 6:33:38 PM

Latest Report: Sep 16, 2014 at 4:00 PM


Visibility: N/A

Pressure: 29.92 "Hg

Humidity: 31%

Dew point: 55 °F

Location of NampulaLocation

Historic Weather in Nampula — Graph

°F

Nampula temperature yesterday

Maximum temperature yesterday: 91 °F (at 3:00 PM)
Minimum temperature yesterday: 70 °F (at 11:00 PM)
Average temperature yesterday: 78 °F

Past Weeks' High & Low Weather Summary

 TemperatureHumidityPressure
High91 °F (Sep 15, 3:00 PM)100% (Sep 3, 5:00 AM)30.27 "Hg (Sep 3, 5:00 AM)
Low61 °F (Sep 3, 5:00 AM)27% (Sep 16, 12:00 PM)29.92 "Hg (Sep 16, 4:00 PM)
Average74 °F67%30.11 "Hg
* Reported Sep 1 5:00 PM — Sep 16 4:00 PM, Nampula, Weather by CustomWeather, © 2014

Note: Actual official high and low records may vary slightly from our data, if they occured in-between our weather recording intervals... More about our weather records

Advertising

Nampula weather history for previous 24 hours

 ConditionsComfort  
Time TempWeatherWind HumidityBarometerVisibility
4:00 PM
Sep 16
90 °FPassing clouds.12 mph31%29.92 "HgN/A
3:00 PM90 °FPassing clouds.13 mph38%30.01 "HgN/A
2:00 PM90 °FPassing clouds.5 mph29%30.01 "HgN/A
1:00 PM86 °FPassing clouds.2 mph33%30.07 "HgN/A
12:00 PM88 °FPassing clouds.14 mph27%30.07 "HgN/A
11:00 AM86 °FPassing clouds.10 mph38%30.12 "HgN/A
10:00 AM84 °FSunny.12 mph40%30.12 "Hg10 mi
9:00 AM72 °FFog.3 mph88%30.15 "Hg4 mi
8:00 AM72 °FSunny.2 mph78%30.12 "Hg10 mi
7:00 AM66 °FSunny.5 mph100%30.12 "Hg10 mi
4:00 AM66 °FClear.3 mph94%30.09 "Hg10 mi
3:00 AM68 °FClear.5 mph88%30.09 "Hg10 mi
2:00 AM68 °FClear.5 mph94%30.09 "Hg10 mi
1:00 AM68 °FPassing clouds.6 mph94%30.12 "HgN/A
11:00 PM
Sep 15
70 °FPassing clouds.9 mph88%30.12 "HgN/A
10:00 PM72 °FClear.10 mph73%30.12 "Hg10 mi
9:00 PM75 °FClear.9 mph65%30.12 "Hg10 mi
8:00 PM77 °FClear.7 mph54%30.09 "Hg10 mi
7:00 PM81 °FClear.10 mph48%30.09 "Hg10 mi
Weather by CustomWeather, © 2014

See weather overviewHow to use our weather pages